CW9561 Weather Reports


Display with metric or nautical units.
time (UTC)temp
F
wind
direction
speed
MPH
gust
MPH
rain 1hr
in
rain 24hr
in
rain mn
in
humidity
%
barometer
mb
20260502123041 24 345 2.0 0.0 0.00 0.00 0.00 78 1024.9
20260502122036 23 346 2.0 0.0 0.00 0.00 0.00 78 1024.5
20260502121027 24 346 3.0 0.0 0.00 0.00 0.00 77 1024.6
20260502115038 24 346 3.0 0.0 0.00 0.00 0.00 78 1024.5
20260502114030 23 345 3.0 0.0 0.00 0.00 0.00 78 1024.5
20260502112035 24 346 3.0 0.0 0.00 0.00 0.00 76 1024.6
20260502111036 24 346 2.0 0.0 0.00 0.00 0.00 76 1024.6
20260502105023 25 346 4.0 0.0 0.00 0.00 0.00 74 1024.4
20260502104041 25 346 4.0 0.0 0.00 0.00 0.00 74 1024.5
20260502103035 25 346 3.0 0.0 0.00 0.00 0.00 75 1024.4
20260502102030 25 346 3.0 0.0 0.00 0.00 0.00 74 1024.5
20260502101021 26 346 3.0 0.0 0.00 0.00 0.00 73 1024.5
20260502091021 27 346 2.0 0.0 0.00 0.00 0.00 71 1023.8
20260502071024 30 345 0.0 0.0 0.00 0.00 0.00 64 1024.3
20260502070024 30 346 0.0 0.0 0.00 0.00 0.00 64 1024.5
20260502065041 30 346 0.0 0.0 0.00 0.00 0.00 63 1024.4
20260502064033 31 345 0.0 0.0 0.00 0.00 0.00 63 1024.4
20260502063025 31 346 1.0 0.0 0.00 0.00 0.00 62 1024.4
20260502062042 31 345 3.0 0.0 0.00 0.00 0.00 63 1024.3
20260502060034 32 345 0.0 0.0 0.00 0.00 0.00 62 1024.2
20260502055026 32 345 1.0 0.0 0.00 0.00 0.00 60 1024.0
20260502054019 33 346 2.0 0.0 0.00 0.00 0.00 60 1024.1
20260502053039 33 346 0.0 0.0 0.00 0.00 0.00 59 1023.8
20260502052037 33 346 1.0 0.0 0.00 0.00 0.00 60 1023.9
20260502051029 32 346 0.0 0.0 0.00 0.00 0.00 62 1023.8
20260502045040 32 345 3.0 0.0 0.00 0.00 0.00 64 1023.7
20260502043030 32 345 0.0 0.0 0.00 0.00 0.00 64 1023.9
20260502042028 33 346 0.0 0.0 0.00 0.00 0.00 62 1023.7
20260502041041 33 346 0.0 0.0 0.00 0.00 0.00 62 1023.5
20260502040031 33 346 0.0 0.0 0.00 0.00 0.00 63 1023.5
20260502035023 34 346 0.0 0.0 0.00 0.00 0.00 60 1023.4
20260502034023 35 346 0.0 0.0 0.00 0.00 0.00 60 1023.3
20260502033035 35 345 2.0 0.0 0.00 0.00 0.00 61 1022.9
20260502032026 36 345 1.0 0.0 0.00 0.00 0.00 59 1022.8
20260502031023 36 345 1.0 0.0 0.00 0.00 0.00 57 1022.7
20260502030035 37 346 0.0 0.0 0.00 0.00 0.00 57 1022.6
20260502025031 38 345 0.0 0.0 0.00 0.00 0.00 53 1022.7
20260502024023 39 346 0.0 0.0 0.00 0.00 0.00 52 1022.6
20260502023039 40 346 0.0 0.0 0.00 0.00 0.00 51 1022.5
20260502021035 41 61 0.0 0.0 0.00 0.00 0.00 47 1022.2
20260502020033 42 61 0.0 0.0 0.00 0.00 0.00 46 1022.2
20260502015025 42 61 0.0 0.0 0.00 0.00 0.00 44 1022.1
20260502014042 43 64 0.0 0.0 0.00 0.00 0.00 44 1022.0
20260502013036 43 325 1.0 0.0 0.00 0.00 0.00 44 1021.9
20260502012032 44 44 4.0 0.0 0.00 0.00 0.00 42 1021.1
20260502011026 45 57 1.0 0.0 0.00 0.00 0.00 41 1021.0
20260502010024 45 344 3.0 0.0 0.00 0.00 0.00 40 1021.0
20260502004034 46 310 2.0 0.0 0.00 0.00 0.00 38 1020.8
20260502003027 46 355 2.0 0.0 0.00 0.00 0.00 38 1021.0
20260502002042 47 9 2.0 0.0 0.00 0.00 0.00 35 1020.8
20260502001034 47 346 4.0 0.0 0.00 0.00 0.00 37 1020.9
20260502000030 47 59 5.0 0.0 0.00 0.00 0.00 35 1021.1
20260501235023 48 23 2.0 0.0 0.00 0.00 0.00 30 1020.4
20260501234036 48 302 2.0 0.0 0.00 0.00 0.00 29 1020.4
20260501233036 48 355 3.0 0.0 0.00 0.00 0.00 27 1020.3
20260501232031 48 17 1.0 0.0 0.00 0.00 0.00 30 1020.5
20260501231025 48 331 4.0 0.0 0.00 0.00 0.00 30 1020.3
20260501230040 47 13 4.0 0.0 0.00 0.00 0.00 31 1020.2
20260501225034 47 56 4.0 0.0 0.00 0.00 0.00 32 1020.2
20260501224033 49 338 3.0 0.0 0.00 0.00 0.00 30 1020.2
20260501223025 49 276 3.0 0.0 0.00 0.00 0.00 32 1020.2
20260501222038 48 14 2.0 0.0 0.00 0.00 0.00 32 1020.3
20260501221033 48 30 5.0 0.0 0.00 0.00 0.00 34 1020.5
20260501214040 46 360 2.0 0.0 0.00 0.00 0.00 37 1020.7
20260501211039 46 94 4.0 0.0 0.00 0.00 0.00 50 1021.1
20260501210031 45 60 3.0 0.0 0.00 0.00 0.00 46 1021.3
20260501205034 46 68 2.0 0.0 0.00 0.00 0.00 42 1021.3
20260501204031 45 114 3.0 0.0 0.00 0.00 0.00 42 1021.2
20260501203030 45 40 2.0 0.0 0.00 0.00 0.00 43 1021.3
20260501202027 46 28 1.0 0.0 0.00 0.00 0.00 43 1021.4
20260501201026 45 28 2.0 0.0 0.00 0.00 0.00 46 1021.3
20260501200021 44 31 1.0 0.0 0.00 0.00 0.00 48 1021.4
20260501195038 43 343 0.0 0.0 0.00 0.00 0.00 51 1021.4
20260501194033 42 45 0.0 0.0 0.00 0.00 0.00 54 1021.6
20260501192030 42 96 2.0 0.0 0.00 0.00 0.00 53 1021.5
20260501191029 42 102 4.0 0.0 0.00 0.00 0.00 52 1021.4
20260501190029 43 136 3.0 0.0 0.00 0.00 0.00 52 1021.4
20260501185021 42 122 3.0 0.0 0.00 0.00 0.00 57 1021.6
20260501184020 42 98 4.0 0.0 0.00 0.00 0.00 57 1021.5
20260501183022 41 115 4.0 0.0 0.00 0.00 0.00 58 1021.7
20260501182035 41 29 5.0 0.0 0.00 0.00 0.00 59 1021.7
20260501181030 40 98 4.0 0.0 0.00 0.00 0.00 60 1021.8
20260501175027 40 24 3.0 0.0 0.00 0.00 0.00 61 1022.0
20260501173026 39 93 6.0 0.0 0.00 0.00 0.00 66 1021.5
20260501171021 39 103 4.0 0.0 0.00 0.00 0.00 71 1021.6
20260501170023 38 86 5.0 0.0 0.00 0.00 0.00 69 1021.6
20260501165019 38 77 4.0 0.0 0.00 0.00 0.00 69 1021.7
20260501164036 37 95 6.0 0.0 0.00 0.00 0.00 72 1021.7
20260501162030 37 90 4.0 0.0 0.00 0.00 0.00 75 1021.6
20260501161029 36 76 4.0 0.0 0.00 0.00 0.00 77 1021.5
20260501160030 36 91 3.0 0.0 0.00 0.00 0.00 77 1021.5
20260501155027 35 87 3.0 0.0 0.00 0.00 0.00 78 1021.5
20260501154022 34 117 3.0 0.0 0.00 0.00 0.00 77 1021.4
20260501153020 34 118 2.0 0.0 0.00 0.00 0.00 79 1021.5
20260501152022 34 80 1.0 0.0 0.00 0.00 0.00 79 1021.5
20260501151035 33 121 3.0 0.0 0.00 0.00 0.00 81 1021.5
20260501150027 33 90 2.0 0.0 0.00 0.00 0.00 79 1021.7